FW9535 Weather Reports


Display with metric or nautical units.
time (UTC)temp
F
wind
direction
speed
MPH
gust
MPH
rain 1hr
in
rain 24hr
in
rain mn
in
humidity
%
barometer
mb
20260510002217 67 260 2.0 2.0 0.00 0.00 0.00 68 1028.0
20260510000713 67 260 2.0 2.0 0.00 0.00 0.00 68 1028.0
20260509235209 67 275 2.0 2.0 0.00 0.00 0.00 68 1027.9
20260509233707 66 205 3.0 3.0 0.00 0.00 0.00 71 1027.9
20260509232203 63 265 1.0 2.0 0.00 0.00 0.00 73 1028.0
20260509230700 62 193 2.0 2.0 0.00 0.00 0.00 76 1027.9
20260509225200 60 239 2.0 3.0 0.00 0.00 0.00 78 1028.0
20260509223656 59 260 2.0 2.0 0.00 0.00 0.00 80 1028.0
20260509222151 57 222 1.0 2.0 0.00 0.00 0.00 86 1027.8
20260509220651 55 206 3.0 3.0 0.00 0.00 0.00 86 1027.9
20260509215146 54 194 2.0 3.0 0.00 0.00 0.00 87 1027.5
20260509213643 52 196 2.0 2.0 0.00 0.00 0.00 89 1027.7
20260509212138 51 222 1.0 1.0 0.00 0.00 0.00 91 1027.2
20260509210634 50 223 1.0 1.0 0.00 0.00 0.00 92 1027.1
20260509205132 50 222 2.0 2.0 0.00 0.00 0.00 92 1026.9
20260509203632 50 229 1.0 1.0 0.00 0.00 0.00 91 1026.7
20260509202132 50 216 2.0 2.0 0.00 0.00 0.00 92 1026.5
20260509200632 50 238 2.0 2.0 0.00 0.00 0.00 92 1026.4
20260509195131 51 209 1.0 1.0 0.00 0.00 0.00 91 1026.4
20260509193629 50 222 0.0 0.0 0.00 0.00 0.00 92 1025.9
20260509192129 50 270 0.0 0.0 0.00 0.00 0.00 91 1025.8
20260509190628 51 239 1.0 1.0 0.00 0.00 0.00 91 1025.7
20260509185125 50 206 2.0 2.0 0.00 0.00 0.00 91 1025.5
20260509183622 51 212 1.0 2.0 0.00 0.00 0.00 91 1025.1
20260509182116 51 278 0.0 0.0 0.00 0.00 0.00 92 1025.1
20260509180614 49 197 2.0 2.0 0.00 0.00 0.00 93 1024.9
20260509175108 50 191 3.0 3.0 0.00 0.00 0.00 92 1024.8
20260509173607 50 230 1.0 1.0 0.00 0.00 0.00 93 1024.6
20260509172102 50 207 2.0 2.0 0.00 0.00 0.00 92 1024.9
20260509170556 51 219 2.0 2.0 0.00 0.00 0.00 90 1025.0
20260509165052 51 220 1.0 2.0 0.00 0.00 0.00 90 1024.7
20260509163548 52 247 2.0 2.0 0.00 0.00 0.00 90 1024.9
20260509162047 51 248 0.0 0.0 0.00 0.00 0.00 90 1024.9
20260509160546 51 256 0.0 0.0 0.00 0.00 0.00 91 1024.9
20260509155046 51 232 0.0 0.0 0.00 0.00 0.00 91 1025.0
20260509153543 51 277 1.0 2.0 0.00 0.00 0.00 91 1025.0
20260509152039 51 228 0.0 1.0 0.00 0.00 0.00 90 1025.0
20260509150536 51 267 0.0 0.0 0.00 0.00 0.00 90 1024.9
20260509145036 51 270 0.0 0.0 0.00 0.00 0.00 90 1025.3
20260509143534 52 288 0.0 0.0 0.00 0.00 0.00 90 1025.2
20260509142035 52 274 0.0 1.0 0.00 0.00 0.00 89 1025.3
20260509140530 52 220 1.0 1.0 0.00 0.00 0.00 89 1025.3
20260509135029 52 257 1.0 1.0 0.00 0.00 0.00 88 1025.0
20260509133525 53 244 0.0 0.0 0.00 0.00 0.00 88 1025.1
20260509132026 53 273 0.0 0.0 0.00 0.00 0.00 88 1025.2
20260509130525 53 281 1.0 1.0 0.00 0.00 0.00 88 1025.3
20260509125021 53 241 0.0 0.0 0.00 0.00 0.00 88 1025.1
20260509123519 53 274 1.0 1.0 0.00 0.00 0.00 88 1025.3
20260509122015 53 266 1.0 2.0 0.00 0.00 0.00 87 1025.2
20260509120513 53 228 1.0 2.0 0.00 0.00 0.00 87 1025.4
20260509115011 53 238 0.0 0.0 0.00 0.00 0.00 87 1025.5
20260509113511 53 293 0.0 0.0 0.00 0.00 0.00 87 1025.3
20260509112008 53 240 0.0 0.0 0.00 0.00 0.00 88 1025.5
20260509110504 53 272 0.0 0.0 0.00 0.00 0.00 88 1025.3
20260509105003 53 266 0.0 0.0 0.00 0.00 0.00 88 1025.3
20260509103500 53 243 0.0 0.0 0.00 0.00 0.00 89 1025.1
20260509101957 53 236 0.0 0.0 0.00 0.00 0.00 89 1024.9
20260509100454 53 286 0.0 0.0 0.00 0.00 0.00 90 1025.0
20260509094950 53 272 1.0 1.0 0.00 0.00 0.00 89 1024.9
20260509093448 54 278 0.0 0.0 0.00 0.00 0.00 89 1024.6
20260509091947 54 238 2.0 2.0 0.00 0.00 0.00 89 1024.5
20260509090444 55 217 2.0 2.0 0.00 0.00 0.00 88 1024.5
20260509084940 55 273 0.0 0.0 0.00 0.00 0.00 87 1024.4
20260509083438 55 296 0.0 0.0 0.00 0.00 0.00 86 1024.4
20260509081934 56 288 0.0 0.0 0.00 0.00 0.00 85 1023.9
20260509080433 57 285 0.0 0.0 0.00 0.00 0.00 84 1023.9
20260509074931 57 286 0.0 0.0 0.00 0.00 0.00 81 1023.6
20260509073427 58 279 0.0 0.0 0.00 0.00 0.00 79 1023.3
20260509071922 59 283 0.0 0.0 0.00 0.00 0.00 77 1023.0
20260509070419 61 291 0.0 0.0 0.00 0.00 0.00 75 1023.0
20260509064919 63 287 0.0 1.0 0.00 0.00 0.00 71 1022.7
20260509063415 65 208 1.0 2.0 0.00 0.00 0.00 67 1022.8
20260509061913 66 306 0.0 0.0 0.00 0.00 0.00 64 1022.6
20260509060410 67 7 2.0 2.0 0.00 0.00 0.00 65 1022.6
20260509054910 69 292 0.0 0.0 0.00 0.00 0.00 61 1022.6
20260509053408 68 309 0.0 1.0 0.00 0.00 0.00 62 1022.6
20260509051906 69 304 0.0 0.0 0.00 0.00 0.00 57 1022.2
20260509050403 69 214 4.0 7.0 0.00 0.00 0.00 54 1022.2